Regional Weather Roundup
Issued by NWS Jackson, KY

Home | Current Version | Previous Version | Text Only | Print | Product List | Glossary On
Versions: 1 2 3 4 5 6 7 8 9 10 11 12 13 14 15 16 17 18 19 20 21 22 23 24 25 26 27
000
ASUS43 KJKL 220010
RWRJKL

EAST KENTUCKY HOURLY WEATHER ROUNDUP
NATIONAL WEATHER SERVICE JACKSON KY
800 PM EDT MON AUG 21 2017

NOTE: "FAIR" INDICATES FEW OR NO CLOUDS BELOW 12,000 FEET WITH
NO SIGNIFICANT WEATHER AND/OR OBSTRUCTIONS TO VISIBILITY.

* THESE REPORTS ARE NOT UNDER NWS QUALITY CONTROL AND MAY NOT
  REPORT WEATHER SUCH AS PRECIPITATION AND FOG.

KYZ079-080-083-085-087-088-110-112-115-119-120-220100
...EASTERN KENTUCKY...

CITY           SKY/WX    TMP DP  RH WIND       PRES   REMARKS
JACKSON        CLEAR     81  68  64 CALM      30.17S
6HR MIN TEMP:  81; 6HR MAX TEMP:  88;

LONDON         CLEAR     84  68  58 CALM      30.16R
6HR MIN TEMP:  84; 6HR MAX TEMP:  89;

SOMERSET*      MOCLDY    84  66  54 CALM      30.15R
MONTICELLO*    CLEAR     77  74  90 VRB6      30.16R
6HR MIN TEMP:  77; 6HR MAX TEMP:  90;

WILLIAMSBURG*  CLEAR     82  72  69 CALM      30.16R
MIDDLESBORO*   CLEAR     80  70  70 CALM      30.17R
6HR MIN TEMP:  80; 6HR MAX TEMP:  90;

HARLAN APT*    CLEAR     77  70  78 CALM      30.18S
PIKE CO APT*     N/A     82  69  64 CALM      30.18S
BIG SANDY APT*   N/A     81  73  78 CALM      30.16S
6HR MIN TEMP:  80; 6HR MAX TEMP:  88;

MOREHEAD APT*  CLEAR     81  72  74 S3        30.15F
$$

KYZ035-036-041-042-044-050-067-078-099-220100
...CENTRAL KENTUCKY...

CITY           SKY/WX    TMP DP  RH WIND       PRES   REMARKS
MT STERLING*   CLOUDY    79  72  78 CALM      30.15S
FLEMING/MASON* PTCLDY    82  71  69 S3        30.13S
DANVILLE*      PTCLDY    81  68  65 CALM      30.15S
LEXINGTON      MOCLDY    83  69  62 S6        30.13S
6HR MIN TEMP:  83; 6HR MAX TEMP:  90;

FRANKFORT      CLOUDY    83  69  62 S5        30.10S
6HR MIN TEMP:  83; 6HR MAX TEMP:  91;

LOUISVILLE     CLOUDY    89  68  49 S8        30.07F HX  93
6HR MIN TEMP:  88; 6HR MAX TEMP:  93;

LEBANON*         N/A     82  72  69 CALM      30.12F
GLASGOW*       CLEAR     83  69  62 CALM      30.12R
BOWLING GREEN  CLOUDY    87  70  56 SE7       30.10R HX  92
6HR MIN TEMP:  86; 6HR MAX TEMP:  92;

$$

KYZ091>093-OHZ055-061-077-WVZ005-015-034-035-042-220100
...SOUTHERN OHIO/WEST VIRGINIA...

CITY           SKY/WX    TMP DP  RH WIND       PRES   REMARKS
COVINGTON      CLOUDY    83  71  67 S3        30.10S
COLUMBUS       CLOUDY    86  69  56 SW9       30.08F HX  90
DAYTON         CLOUDY    81  68  64 SW8       30.09F
WILMINGTON     CLOUDY    78  72  81 S6        30.10F
HUNTINGTON     CLEAR     83  67  58 S3        30.12S
CHARLESTON     PTCLDY    82  68  62 CALM      30.14S
PINEVILLE*     CLEAR     74  71  88 MISG      30.25R
BECKLEY        CLEAR     78  62  57 CALM      30.24R
BLUEFIELD      CLEAR     78  64  61 CALM      30.27S
LOGAN CO APT*    N/A     82  70  65 CALM      30.18S
$$

VAZ002-007-008-TNZ017-027-036-066-071-220100
...SOUTHWEST VIRGINIA/EAST TENNESSEE...

CITY           SKY/WX    TMP DP  RH WIND       PRES   REMARKS
WISE*          PTCLDY    79  64  61 CALM      30.27R
JONESVILLE*      N/A     81  72  74 CALM      30.19S
ABINGDON*      CLOUDY    82  68  61 CALM      30.23R
BRISTOL        PTCLDY    83  70  64 CALM      30.18S
MORRISTOWN*    CLEAR     84  66  54 CALM      30.15S
SEVIERVILLE*   CLEAR     86  64  48 CALM      30.14R
KNOXVILLE      PTCLDY    86  67  52 N3        30.13S
LAFOLLETTE*    CLEAR     79  72  78 CALM      30.18S
OAK RIDGE      CLEAR     84  69  60 CALM      30.15S
CROSSVILLE     CLEAR     79  69  71 CALM      30.20S
NASHVILLE      PTCLDY    89  68  49 S5        30.10R HX  93
$$

...KEY TO REMARKS...
VSB - VISIBILITY IN MILES
WCI - WIND CHILL INDEX
HX  - HEAT INDEX

$$




USA.gov is the U.S. government's official web portal to all federal, state and local government web resources and services.